Location: Edinburgh
(55.9500°N, 3.1600°W)
Time: 05:59:49
(UTC+00:00)

Envisat - Pass Details

Date: 08 October 2017
Orbit: 764 x 766 km, 98.2° (Epoch: 10 December)

Event Time Altitude Azimuth Distance (km) Brightness Sun altitude
Exits shadow 20:40:42 16° 164° (SSE) 1,896 4.7 -19.0°
Maximum altitude 20:44:46 87° 252° (WSW) 777 3.0 -19.6°
Drops below altitude 10° 20:49:54 10° 344° (NNW) 2,320 5.9 -20.2°
Sets 20:52:13 0° 345° (NNW) 3,251 6.8 -20.6°
